Weather in Tulchyn

Ukraine / Vinnytsia Region     48°40′24″N   28°51′16″E
temp.,
°C
wind,
m/s
gust,
m/s
humid.,
%
clouds,
%
prec.,
mm/h
press.,
hPa
HPBL,
m
25 june, sat
sat2500:00+15n22885 0.0 101411
03:00+13nne34895 0.0 101449
06:00+13nne379183 0.0 1015139
09:00+20ne57655 0.0 1015754
12:00+23ene6758100 0.1 10151537
15:00+20ne467781 1.8 1015601
18:00+23ene566010 0.8 10151233
21:00+17ene33876 2.1 101644
26 june, sun
sun2600:00+15ne348897 0.0 101778
03:00+14ne36955 0.0 1017100
06:00+14ne369713 0.0 1017135
09:00+20ene467729 0.0 1018690
12:00+20e4780100 1.1 1018540
15:00+25ene565326 1.4 10181614
18:00+22e47715 1.8 1018884
21:00+18ene368959 3.4 101990
27 june, mon
mon2700:00+16ene359348 0.0 102080
03:00+16ene359491 0.0 102095
06:00+16ene3794100 0.0 1020152
09:00+21ene477599 0.1 1021405
12:00+27ene564451 0.2 10202331
15:00+26ese464651 0.2 10191010
18:00+28e673637 0.0 10192412
21:00+21ese335837 0.0 101935
28 june, tue
tue2800:00+18ne226699 0.0 102012
03:00+17ne237399 0.0 102024
06:00+17ne347641 0.0 102072
09:00+24ene466045 0.0 1020569
12:00+28e57425 0.0 10192235
15:00+31ene673544 0.0 10172877
18:00+30e563670 0.0 10162377
21:00+25se1254100 0.0 101821
29 june, wed
wed2900:00+18ne358667 0.8 101986
03:00+17ene3591100 0.9 101990
06:00+18ene239195 0.3 101957
09:00+24ene337191 0.3 1019399
12:00+29ene444523 0.0 10181797
15:00+31ne543568 0.0 10172740
18:00+27s364893 0.0 1016324
21:00+25e365757 0.0 1017127